Tracking 23610 objects as of 19-Sep-2021
HD Live streaming from Space Station
objects crossing your sky now

SATCOM 1

Track SATCOM 1 now!
SATCOM 1 is classified as:


NORAD ID: 8476
Int'l Code: 1975-117A
Perigee: 35,911.4 km
Apogee: 36,051.5 km
Inclination: 11.6 °
Period: 1,445.7 minutes
Semi major axis: 42352 km
RCS: 2.5118 m2 (large)
Launch date: December 13, 1975
Source: United States (US)
Launch site: AIR FORCE EASTERN TEST RANGE (AFETR)
aabbcc
Your satellite tracking list
Your tracking list is empty




NASA's NSSDC Master Catalog

Two Line Element Set (TLE):
1 08476U 75117A   21261.87054538 -.00000063  00000-0  00000-0 0  9998
2 08476  11.6137 319.3471 0016532 220.2244 143.8884  0.99605925 29111
Source of the keplerian elements: AFSPC